Current Weather Conditions: station 42390

sailwx.info

Wind from 030

Air temperature 25.6° C
Dewpoint 20.6° C

Last reported at 2014-Oct-31 03:30 UTC.
Time now 2014-Oct-31 04:59 UTC

Location: N 26°06' W 094°54'.
View on Google Maps.

See reports from other nearby stations

  
Tides and Currents Weather Stations Pressure Air Temp Water Temp Dewpoint Dewpoint Depression Visibility Wind Speed Wind Dir Waves Ship Positions
date/time (UTC)wind fromknots sea level pressurealtimeterstation pressurevisibilityair tempwater tempwave heightnotes
2014-Oct-31 03:30 030 25.6
2014-Oct-31 01:30 030 25.6
2014-Oct-30 23:30 010 69 26.1
2014-Oct-30 22:30 230 44 26.1
2014-Oct-30 21:30 100 19 26.1
2014-Oct-30 20:30 010 5 26.1
2014-Oct-30 19:30 020 5 26.1
2014-Oct-30 18:30 030 5 26.1
2014-Oct-30 17:30 030 7 26.1
2014-Oct-30 15:30 030 9 26.7
2014-Oct-30 14:30 210 34 26.1
2014-Oct-30 12:30 010 5 25.6
2014-Oct-30 09:30 040 1 25.6
2014-Oct-30 08:30 050 1 25.6
2014-Oct-30 06:30 040 1 26.1
2014-Oct-30 05:30 050 1 26.1
2014-Oct-30 03:30 050 3 26.1
2014-Oct-30 01:30 050 5 26.1
2014-Oct-30 00:30 040 5 26.7
2014-Oct-29 23:30 030 3 26.7
2014-Oct-29 22:30 030 3 26.7
2014-Oct-29 20:30 26.7
2014-Oct-29 18:30 080 1 26.7
2014-Oct-29 17:30 130 5 26.7
2014-Oct-29 16:30 140 7 26.7
2014-Oct-29 14:30 120 7 27.2
2014-Oct-29 13:30 130 3 27.2
2014-Oct-29 12:30 140 3 26.1
2014-Oct-29 11:30 130 3 26.1
2014-Oct-29 09:30 170 5 26.1
2014-Oct-29 06:30 160 11 26.1
2014-Oct-29 05:30 150 11 26.1